Location: Ebelhof
(47.1500°N, 15.5833°E)
Time: 00:56:40
(UTC+00:00)

Daily predictions for brighter satellites

Satellite Brightness Start Highest point End
(mag) Time Altitude Azimuth Time Altitude Azimuth Time Altitude Azimuth
STARLINK-1212 3.8 00:00:34 10° NW 00:03:36 48° NNE 00:06:37 10° E
STARLINK-1105 3.8 00:01:02 10° NW 00:04:04 48° NNE 00:07:04 10° E
STARLINK-1209 3.3 00:01:15 10° WNW 00:04:24 63° NNE 00:06:55 15° ESE
STARLINK-1247 3.8 00:01:57 10° NW 00:05:00 49° NNE 00:08:03 10° E
STARLINK-1227 3.7 00:02:24 10° NW 00:05:27 49° NNE 00:08:27 10° E
ATLAS CENTAUR R/B 3.0 00:03:27 10° NNW 00:05:44 35° NE 00:10:01 10° ESE
STARLINK-1226 3.7 00:03:15 10° NW 00:06:19 50° NNE 00:09:21 10° E
Nadezhda 2 Rocket 4.5 00:04:33 35° SSW 00:07:13 71° W 00:13:21 10° N
STARLINK-1215 3.7 00:04:12 10° NW 00:07:16 51° NNE 00:10:19 10° E
STARLINK-1217 3.7 00:05:57 10° NW 00:09:01 52° NNE 00:12:05 10° E
GEOS 3 Rocket 3.7 00:07:39 37° S 00:09:29 55° SW 00:14:41 10° NW
STARLINK-1229 3.6 00:06:53 10° NW 00:09:57 53° NNE 00:13:01 10° ESE
STARLINK-1270 3.6 00:07:44 10° NW 00:10:49 53° NNE 00:13:53 10° ESE
Cosmos 1726 4.4 00:09:06 10° NW 00:10:54 14° W 00:10:54 14° W
Cosmos 2058 Rocket 3.1 00:08:13 10° NNW 00:12:37 68° W 00:13:46 46° SSW
STARLINK-1189 3.5 00:09:35 10° WNW 00:12:39 55° NNE 00:15:44 10° ESE
Meteor 1-29 3.5 00:10:00 10° N 00:13:15 43° WNW 00:13:32 42° W
STARLINK-1188 3.5 00:10:27 10° WNW 00:13:33 55° NNE 00:16:38 10° ESE
STARLINK-1235 3.1 00:11:08 10° WNW 00:14:14 67° NNE 00:17:19 10° ESE
COSMOS 2455 2.9 00:11:39 32° SW 00:14:35 78° NW 00:20:40 10° NNE
STARLINK-1187 3.3 00:11:34 10° WNW 00:14:39 61° NNE 00:17:43 10° ESE
Cosmos 2228 3.9 00:11:11 10° NNW 00:15:00 33° W 00:15:32 31° WSW
STARLINK-1191 3.4 00:12:56 10° WNW 00:16:01 57° NNE 00:19:04 10° ESE
SJ 16-02 3.3 00:12:45 10° N 00:16:35 28° ENE 00:20:23 10° ESE
Cosmos 2084 4.5 00:15:46 30° SSE 00:16:45 34° ESE 00:20:48 10° NE
STARLINK-1221 3.4 00:13:48 10° WNW 00:16:53 58° NNE 00:19:57 10° ESE
STARLINK-1222 3.4 00:14:41 10° WNW 00:17:46 59° NNE 00:20:50 10° ESE
STARLINK-1214 3.4 00:15:37 10° WNW 00:18:42 60° NNE 00:21:45 10° ESE
SL-14 R/B 3.2 00:18:39 53° SW 00:19:25 72° W 00:23:18 10° N
IRAS Rocket 4.4 00:17:53 34° SSW 00:20:09 58° WSW 00:25:40 10° NNW
Cosmos 2292 4.5 00:18:14 10° N 00:22:22 84° W 00:23:01 57° S
Okean 1-7 Rocket 3.8 00:22:03 40° SW 00:23:24 58° WNW 00:27:52 10° N
Cosmos 1174 3.8 00:23:33 45° W 00:24:08 52° NW 00:27:44 10° NNE
Cosmos 1300 2.7 00:20:35 10° NNW 00:24:22 65° W 00:25:04 52° SSW
Cosmos 921 Rocket 2.9 00:23:34 44° S 00:24:51 76° ESE 00:29:10 10° NNE
BREEZE M DEB (TANK) 2.0 00:26:49 62° NW 00:27:07 75° NNE 00:30:40 10° ESE
COSMOS 2487 4.3 00:25:29 10° NW 00:27:18 19° W 00:27:18 19° W
Meteor 2-16 Rocket 4.4 00:27:43 31° SSW 00:30:53 81° W 00:37:04 10° N
Cosmos 1626 Rocket 3.6 00:29:36 37° S 00:31:14 74° E 00:35:34 10° NNE
Cosmos 2219 3.5 00:27:51 10° NNW 00:33:33 66° ENE 00:39:08 10° SE
Cosmos 1626 2.7 00:34:31 37° WSW 00:35:15 43° WNW 00:38:50 10° N
STARLINK-1210 4.4 00:31:17 10° WNW 00:35:22 52° NNE 00:39:26 10° E
STARLINK-60 3.0 00:36:26 49° W 00:37:09 71° NNW 00:40:21 10° ENE
STARLINK-1219 4.4 00:36:16 10° WNW 00:40:21 55° NNE 00:44:26 10° E
Nadezhda 1 Rocket 3.9 00:35:47 10° NNW 00:41:55 75° W 00:45:52 24° S
FALCON 9 R/B 3.9 00:38:25 25° SW 00:42:37 42° SSE 01:03:30 10° ESE
STARLINK-1211 4.3 00:41:14 10° WNW 00:45:20 57° NNE 00:49:26 10° ESE
MOZ.5/SAFIR/RUBIN 5/SL-8 3.8 00:44:16 32° SSW 00:46:13 58° W 00:50:49 10° NNW
UNK 3.6 00:44:00 28° S 00:46:28 77° WSW 00:51:06 10° NNW
STARLINK-1344 4.5 00:46:57 22° SE 00:46:57 22° SE 00:49:21 10° E
STARLINK-1343 4.5 00:47:17 22° SE 00:47:17 22° SE 00:49:41 10° E
STARLINK-1346 4.5 00:47:35 23° SE 00:47:35 23° SE 00:50:05 10° E
STARLINK-1328 4.5 00:47:57 23° SE 00:47:57 23° SE 00:50:24 10° E
Cosmos 220 Rocket 4.0 00:46:16 35° SSW 00:48:06 86° WNW 00:52:33 10° NNE
STARLINK-1354 4.4 00:48:15 23° SE 00:48:15 23° SE 00:50:43 10° E
STARLINK-1347 4.4 00:48:36 23° SE 00:48:36 23° SE 00:51:05 10° E
STARLINK-1357 4.4 00:48:54 23° SE 00:48:54 23° SE 00:51:24 10° E
STARLINK-1335 4.4 00:49:15 23° SE 00:49:15 23° SE 00:51:45 10° E
Cosmos 2297 Rocket 2.4 00:43:32 10° NNW 00:49:12 71° ENE 00:54:50 10° SE
STARLINK-1327 4.4 00:49:33 23° SE 00:49:33 23° SE 00:52:05 10° E
STARLINK-1340 4.4 00:49:53 24° SE 00:49:53 24° SE 00:52:27 10° E
STARLINK-1356 4.4 00:50:13 24° SE 00:50:13 24° SE 00:52:48 10° E
STARLINK-1245 4.2 00:46:14 10° WNW 00:50:21 60° NNE 00:54:28 10° ESE
AQUA 4.1 00:45:45 10° NNE 00:50:29 61° ESE 00:53:18 24° S
STARLINK-1345 4.4 00:50:32 24° SE 00:50:32 24° SE 00:53:08 10° E
STARLINK-1355 4.3 00:50:52 24° SE 00:50:53 24° SE 00:53:28 10° E
STARLINK-1321 4.3 00:51:10 24° SE 00:51:12 24° SE 00:53:48 10° E
STARLINK-1358 4.3 00:51:31 24° SE 00:51:34 24° SE 00:54:10 10° E
Cosmos 1812 Rocket 3.5 00:47:21 10° N 00:51:52 89° WSW 00:54:30 24° S
STARLINK-1332 4.3 00:51:49 24° SE 00:51:52 24° SE 00:54:28 10° E
CZ-4B R/B 3.7 00:46:53 10° NNE 00:52:01 69° ESE 00:55:16 23° S
STARLINK-1348 4.3 00:52:10 25° SE 00:52:13 25° SE 00:54:51 10° E
SL-4 R/B 2.4 00:49:13 22° WSW 00:52:19 81° NNW 00:57:03 10° ENE
STARLINK-1330 4.3 00:52:29 25° SE 00:52:33 25° SE 00:55:10 10° E
STARLINK-1363 4.3 00:52:47 25° SE 00:52:52 25° SE 00:55:31 10° E
Cosmos 1437 3.3 00:52:48 36° W 00:53:09 37° WNW 00:55:59 10° N
STARLINK-1337 4.3 00:53:07 25° SE 00:53:13 25° SE 00:55:51 10° E
STARLINK-1342 4.2 00:53:27 25° SE 00:53:34 25° SE 00:56:12 10° E
STARLINK-1364 4.2 00:53:47 25° SE 00:53:54 25° SE 00:56:33 10° E
STARLINK-1376 4.2 00:54:07 26° SE 00:54:15 26° SE 00:56:54 10° E
STARLINK-1339 4.4 00:54:00 25° SSE 00:54:30 26° SE 00:57:29 10° E
STARLINK-1360 4.2 00:54:22 26° SE 00:54:30 26° SE 00:57:11 10° E
STARLINK-1361 4.2 00:54:48 26° SE 00:54:56 26° SE 00:57:37 10° E
STARLINK-1367 4.2 00:55:02 26° SE 00:55:13 26° SE 00:57:55 10° E
STARLINK-1233 4.1 00:51:12 10° WNW 00:55:20 64° NNE 00:59:27 10° ESE
STARLINK-1366 4.2 00:55:25 26° SE 00:55:35 26° SE 00:58:16 10° E
STARLINK-1377 4.4 00:56:00 26° SSE 00:56:35 27° SE 00:59:36 10° ENE
Cosmos 990 Rocket 4.5 00:51:45 10° NNW 00:57:00 61° ENE 01:02:11 10° SE
STARLINK-1353 4.3 00:57:56 26° SSE 00:58:33 28° SE 01:01:35 10° ENE
ATLAS CENTAUR R/B 2.5 00:56:56 19° WSW 00:59:30 37° NW 01:03:21 10° NNE
SL-16 R/B 2.6 00:56:01 21° S 01:00:14 61° WSW 01:06:22 10° NNW
STARLINK-1204 4.0 00:56:11 10° WNW 01:00:20 67° NNE 01:04:28 10° ESE
STARLINK-1375 4.3 00:59:43 27° SSE 01:00:24 29° SE 01:03:29 10° ENE
Timation 2 Rocket 4.3 00:54:58 10° NW 01:00:56 43° WSW 01:04:30 22° SSW
STARLINK-1350 4.2 01:01:59 27° SSE 01:02:45 30° SE 01:05:52 10° ENE
NOSS 3-4 (C) 4.5 00:57:37 12° WSW 01:02:56 40° NW 01:09:01 10° NNE
Alouette 2 Rocket 4.3 00:56:13 10° NNW 01:03:01 76° ENE 01:07:10 12° SSE
FALCON 9 DEB 3.1 01:02:07 39° SSW 01:03:12 65° SSE 01:06:38 10° ENE
BREEZE-M R/B 2.7 01:01:07 27° SW 01:03:14 63° SSE 01:06:05 10° ENE
Cosmos 1602 Rocket 3.6 01:01:57 29° SSW 01:04:01 66° W 01:08:20 10° N
Cosmos 1825 Rocket 4.2 01:01:13 17° SSE 01:04:15 49° E 01:08:26 10° NNE
OE (NEXTSAT) 4.3 01:03:40 35° SW 01:04:53 61° SSE 01:08:20 10° E
STARLINK-1352 4.2 01:04:09 28° S 01:05:02 32° SE 01:08:12 10° ENE
STARLINK-1238 3.9 01:01:08 10° WNW 01:05:18 71° NNE 01:09:26 10° ESE
STARLINK-29 2.9 01:04:34 34° WSW 01:05:48 79° NNW 01:08:59 10° ENE
Cosmos 1455 2.2 01:03:04 10° N 01:06:49 78° E 01:09:23 19° SSE
STARLINK-1368 4.2 01:06:14 28° S 01:07:10 33° SE 01:10:23 10° ENE
ATLAS 3B R/B 3.3 01:02:17 10° NW 01:08:21 35° WSW 01:12:43 18° SSW
STARLINK-1369 4.1 01:08:12 28° S 01:09:12 34° SE 01:12:25 10° ENE
BREEZE-M DEB (TANK) 2.6 01:09:30 31° SE 01:09:30 31° SE 01:11:33 10° E
STARLINK-1201 3.8 01:06:08 10° WNW 01:10:18 75° NNE 01:14:27 10° ESE
IRS-1D 3.8 01:05:54 10° NNE 01:11:15 69° ESE 01:15:16 18° S
STARLINK-1372 4.0 01:10:25 28° S 01:11:31 36° SE 01:14:47 10° ENE
CENTAUR R/B 4.4 01:05:59 10° WNW 01:11:51 22° WSW 01:14:47 18° SW
GP-B 3.1 01:08:26 10° N 01:12:55 82° E 01:16:10 18° S
STARLINK-1378 4.0 01:12:32 28° S 01:13:43 38° SE 01:17:01 10° ENE
Meteor 2-1 Rocket 4.3 01:08:45 10° NNW 01:14:09 57° W 01:18:03 19° SSW
BREEZE-M DEB (TANK) 1.7 01:12:38 19° W 01:14:13 54° N 01:16:35 10° ENE
STARLINK-1329 4.0 01:12:59 28° S 01:14:13 38° SE 01:17:31 10° ENE
STARLINK-1365 3.9 01:13:46 29° S 01:15:01 40° SE 01:18:22 10° ENE
STARLINK-1206 3.7 01:11:07 10° WNW 01:15:17 80° NNE 01:19:26 10° ESE
STARLINK-1379 3.9 01:14:39 28° S 01:15:55 39° SE 01:19:15 10° ENE
Cosmos-2242 3.1 01:12:11 10° N 01:16:27 73° E 01:20:32 11° SSE
STARLINK-1362 3.9 01:15:10 28° S 01:16:28 40° SE 01:19:48 10° ENE
Cosmos 1745 Rocket 4.4 01:12:45 21° SW 01:16:35 47° WNW 01:22:31 10° N
Cosmos 1400 Rocket 4.5 01:14:53 10° N 01:18:41 34° ENE 01:22:28 10° SE
STARLINK-1373 3.9 01:17:22 27° SSW 01:18:44 41° SE 01:22:07 10° ENE
STARLINK-1205 3.6 01:16:05 10° WNW 01:20:15 84° NNE 01:24:25 10° ESE
STARLINK-1390 3.8 01:19:27 27° SSW 01:20:54 43° SE 01:24:17 10° ENE
SL-08 R/B 3.8 01:17:04 10° SSE 01:21:43 61° ENE 01:26:19 10° N
RESURS DK-1 3.6 01:19:17 18° WSW 01:21:45 33° NW 01:25:32 10° NNE
Cosmos 2181 Rocket 4.1 01:16:38 10° N 01:23:05 89° ENE 01:29:33 10° S
Cosmos 2227 Rocket 2.1 01:19:06 10° NNW 01:24:48 75° WSW 01:30:27 10° SSE
STARLINK-1218 3.6 01:21:03 10° WNW 01:25:13 89° N 01:29:23 10° ESE
IRS-P3 4.4 01:20:45 10° NNE 01:26:04 66° ESE 01:30:49 13° S
CZ-2D R/B 2.5 01:21:38 10° N 01:26:42 49° WNW 01:30:15 19° SW
Cosmos 1763 Rocket 3.6 01:23:45 18° S 01:27:37 71° ESE 01:32:41 10° NNE
Cosmos 1697 Rocket 3.3 01:23:12 14° S 01:27:53 51° ESE 01:33:22 10° NE
ADEOS II 2.2 01:24:15 10° NNE 01:29:32 76° ESE 01:34:07 14° S
Cosmos 1703 3.3 01:26:47 19° S 01:29:35 86° ESE 01:33:34 10° N
STARLINK-1254 3.5 01:26:03 10° WNW 01:30:13 86° SSW 01:34:22 10° ESE
ATLAS 2AS CENTAUR R/B 4.2 01:24:53 10° W 01:32:11 36° NNW 01:39:19 10° NE
STARLINK-1231 3.5 01:31:03 10° WNW 01:35:12 80° SSW 01:39:21 10° SE
Resurs 1-4 Rocket 2.8 01:31:30 10° N 01:36:24 40° WNW 01:40:11 16° SW
STARLINK-1228 4.1 01:33:54 10° W 01:36:41 24° SW 01:39:27 10° SSE
STARLINK-1234 4.3 01:35:20 10° W 01:41:17 - SSE 01:37:03 20° WSW
STARLINK-1212 3.6 01:36:33 10° WNW 01:39:18 29° SW 01:42:04 10° SSE
STARLINK-1105 3.6 01:37:02 10° WNW 01:39:46 29° SW 01:42:30 10° SSE
STARLINK-1232 3.5 01:36:02 10° WNW 01:40:11 75° SSW 01:44:19 10° SE
STARLINK-1247 3.7 01:37:56 10° WNW 01:40:42 29° SW 01:43:27 10° SSE
STARLINK-1227 3.7 01:38:24 10° WNW 01:41:08 28° SW 01:43:51 10° SSE
ARIANE 5 R/B 2.9 01:36:37 10° NNE 01:41:40 61° ESE 01:46:37 10° S
STARLINK-1226 3.7 01:39:16 10° WNW 01:42:01 28° SW 01:44:44 10° SSE
STARLINK-52 3.6 01:39:41 14° W 01:42:17 51° NNW 01:45:26 10° NE
Cosmos 1758 Rocket 3.8 01:39:23 18° SSW 01:42:25 54° WNW 01:46:44 10° N
STARLINK-1215 3.7 01:40:13 10° WNW 01:42:57 28° SW 01:45:40 10° SSE
NPP 4.3 01:38:48 10° N 01:43:50 41° WNW 01:47:57 15° SW
H-2A R/B 2.9 01:40:14 10° SSE 01:44:26 54° ENE 01:48:45 10° N
STARLINK-1217 3.8 01:42:00 10° W 01:44:42 27° SW 01:47:23 10° SSE
STARLINK-1208 3.5 01:41:01 10° WNW 01:45:08 70° SSW 01:49:15 10° SE
STARLINK-1229 3.8 01:42:56 10° W 01:45:37 26° SW 01:48:18 10° SSE
STARLINK-1270 3.8 01:43:48 10° W 01:46:29 26° SW 01:49:09 10° SSE
STARLINK-1189 3.9 01:45:40 10° W 01:48:19 25° SW 01:50:56 10° SSE
STARLINK-1188 3.9 01:46:34 10° W 01:49:11 25° SW 01:51:49 10° SSE
STARLINK-1235 4.2 01:47:27 10° W 01:49:46 19° SW 01:52:05 10° S
Cosmos 1898 Rocket 3.7 01:44:37 10° NNW 01:49:49 53° WSW 01:54:57 10° S
STARLINK-1271 3.5 01:46:01 10° WNW 01:50:08 65° SW 01:54:14 10° SE
STARLINK-1187 4.1 01:47:46 10° W 01:50:14 21° SW 01:52:41 10° S
STARLINK-1191 4.0 01:49:05 10° W 01:51:38 23° SW 01:54:10 10° SSE
Lacrosse 4 Rocket 1.9 01:47:32 10° NNW 01:51:54 65° NE 01:56:06 10° SE
STARLINK-1221 4.0 01:49:57 10° W 01:52:29 23° SW 01:55:01 10° SSE
Cosmos 1656 3.9 01:48:20 15° SW 01:53:02 63° WNW 01:58:39 10° NNE
STARLINK-1222 4.0 01:50:52 10° W 01:53:23 23° SW 01:55:53 10° SSE
STARLINK-1214 4.0 01:51:48 10° W 01:54:17 22° SW 01:56:46 10° S
IDEFIX/ARIANE 42P 3.7 01:49:58 10° NNE 01:55:01 43° E 02:00:00 10° S
CZ-4C R/B 2.3 01:50:43 14° SSW 01:55:02 67° SE 02:00:57 10° NE
STARLINK-1154 3.6 01:51:00 10° WNW 01:55:06 60° SW 01:59:11 10° SE
SJ 16-02 2.1 01:51:12 10° NW 01:55:13 34° WSW 01:59:12 10° SSW
Cosmos 2285 Rocket 4.0 01:49:00 10° NNW 01:55:24 74° WSW 02:01:41 10° SSE
Cosmos 2084 4.5 01:52:18 12° WSW 01:56:13 40° NW 02:00:28 10° NNE
Cosmos 468 Rocket 4.2 01:52:22 15° SW 01:56:37 58° WNW 02:01:41 10° NNE
STARLINK-1243 4.5 01:53:15 10° WNW 01:57:19 54° NNE 02:01:24 10° E
Cosmos 1570 Rocket 4.1 01:53:01 11° SSW 01:58:08 82° ESE 02:03:28 10° NNE
Cosmos 1953 Rocket 3.7 01:54:38 12° SSW 01:58:43 67° W 02:03:10 10° N
STARLINK-1197 3.7 01:55:59 10° WNW 02:00:04 56° SW 02:04:07 10° SE
Cosmos 1937 Rocket 3.6 01:54:57 10° NNW 02:00:06 59° WSW 02:05:16 10° S
Cosmos 2208 Rocket 4.2 01:55:50 10° SSW 02:01:01 73° ESE 02:06:20 10° NNE
Cosmos 2369 3.8 01:55:55 12° SSW 02:01:15 85° ESE 02:06:57 10° NNE
Meteor 2-10 Rocket 4.4 01:57:08 10° NNW 02:01:46 31° W 02:06:01 11° SSW
NOSS 7 (H) 4.1 01:59:33 15° SW 02:02:06 81° NW 02:05:04 10° NE
Uosat 12 SS-18 rocket 4.5 01:57:55 10° NNW 02:02:13 67° NE 02:06:41 10° SE
STARLINK-1236 4.4 01:58:14 10° WNW 02:02:19 56° NNE 02:06:25 10° E
Cosmos 2360 4.5 01:58:35 10° SSW 02:04:13 69° ESE 02:09:54 10° NNE
STARLINK-1198 3.7 02:00:57 10° WNW 02:04:59 52° SW 02:09:01 10° SE
Cosmos 1842 Rocket 4.0 02:01:35 10° N 02:06:04 67° ENE 02:10:31 10° SSE
STARLINK-1199 3.8 02:06:00 10° WNW 02:09:59 48° SW 02:13:58 10° SE
Iridium 2 3.6 02:07:27 10° N 02:11:14 89° WSW 02:14:58 10° S
STARLINK-1269 4.2 02:08:10 10° WNW 02:12:17 62° NNE 02:16:24 10° ESE
USA 129 3.4 02:11:34 10° NE 02:13:20 24° E 02:14:40 10° SSE
STARLINK-1210 3.9 02:10:59 10° WNW 02:14:56 44° SW 02:18:52 10° SSE
Cosmos 1814 Rocket 4.1 02:11:38 10° SSW 02:16:59 87° ESE 02:22:22 10° NNE
Cosmos 2219 4.5 02:13:00 10° NW 02:17:08 21° W 02:21:14 10° SSW
STARLINK-1200 4.1 02:13:10 10° WNW 02:17:18 66° NNE 02:21:26 10° ESE
STARLINK-1320 3.1 02:14:56 10° WSW 02:18:02 64° NNW 02:21:08 10° ENE
STARLINK-1322 3.2 02:15:17 10° WSW 02:18:23 64° NNW 02:21:30 10° ENE
STARLINK-1324 3.2 02:15:38 10° WSW 02:18:44 63° NNW 02:21:50 10° ENE
STARLINK-1294 3.2 02:15:54 10° WSW 02:19:01 63° NNW 02:22:08 10° ENE
STARLINK-1261 3.2 02:16:17 10° WSW 02:19:24 63° NNW 02:22:30 10° ENE
STARLINK-1325 3.2 02:16:39 10° WSW 02:19:45 62° NNW 02:22:51 10° ENE
STARLINK-1219 4.0 02:15:59 10° WNW 02:19:53 41° SW 02:23:47 10° SSE
STARLINK-1333 3.2 02:16:58 10° WSW 02:20:03 62° NNW 02:23:10 10° ENE
Cosmos 1980 Rocket 2.4 02:14:34 10° SSW 02:20:08 71° ESE 02:25:46 10° NNE
STARLINK-1334 3.2 02:17:18 10° WSW 02:20:24 62° NNW 02:23:30 10° ENE
Nadezhda 3 Rocket 4.2 02:14:16 10° N 02:20:33 84° E 02:26:53 10° S
STARLINK-1326 3.2 02:17:39 10° WSW 02:20:45 61° NNW 02:23:51 10° ENE
STARLINK-1323 3.2 02:18:00 10° WSW 02:21:05 61° NNW 02:24:11 10° ENE
STARLINK-1338 3.3 02:17:51 10° WSW 02:21:18 70° NNW 02:24:48 10° ENE
STARLINK-1349 3.2 02:18:19 10° WSW 02:21:25 61° NNW 02:24:31 10° ENE
STARLINK-1336 3.2 02:18:42 10° WSW 02:21:47 60° NNW 02:24:53 10° ENE
CZ-4B R/B 3.6 02:19:11 10° SE 02:21:49 27° ENE 02:24:29 10° N
STARLINK-1331 3.2 02:19:00 10° WSW 02:22:06 60° NNW 02:25:11 10° ENE
STARLINK-1192 4.0 02:18:09 10° WNW 02:22:17 70° NNE 02:26:26 10° ESE
STARLINK-1344 3.3 02:19:21 10° WSW 02:22:26 60° NNW 02:25:32 10° ENE
STARLINK-1343 3.3 02:19:41 10° WSW 02:22:46 60° NNW 02:25:52 10° ENE
STARLINK-1346 3.3 02:20:01 10° WSW 02:23:08 60° NNW 02:26:15 10° ENE
STARLINK-1328 3.3 02:20:23 10° WSW 02:23:29 59° NNW 02:26:34 10° ENE
STARLINK-1354 3.3 02:20:42 10° WSW 02:23:47 59° NNW 02:26:52 10° ENE
STARLINK-1347 3.3 02:21:04 10° WSW 02:24:09 58° NNW 02:27:14 10° ENE
ERS-2 2.7 02:20:46 10° S 02:24:13 38° W 02:27:40 10° NNW
STARLINK-1357 3.3 02:21:23 10° WSW 02:24:27 58° NNW 02:27:33 10° ENE
STARLINK-1335 3.3 02:21:44 10° WSW 02:24:49 58° NNW 02:27:54 10° ENE
STARLINK-1211 4.1 02:20:59 10° WNW 02:24:50 38° SW 02:28:40 10° SSE
STARLINK-1327 3.3 02:22:03 10° WSW 02:25:08 58° NNW 02:28:13 10° ENE
STARLINK-1371 3.4 02:21:53 10° WSW 02:25:21 66° NNW 02:28:50 10° ENE
STARLINK-1340 3.3 02:22:25 10° WSW 02:25:30 57° NNW 02:28:36 10° ENE
STARLINK-1356 3.3 02:22:45 10° WSW 02:25:50 57° NNW 02:28:55 10° ENE
STARLINK-1345 3.3 02:23:06 10° WSW 02:26:11 57° NNW 02:29:16 10° ENE
STARLINK-1355 3.3 02:23:25 10° WSW 02:26:30 56° NNW 02:29:36 10° ENE
STARLINK-1321 3.3 02:23:45 10° WSW 02:26:49 56° NNW 02:29:55 10° ENE
ERBS 4.0 02:23:58 10° NW 02:27:07 37° NNE 02:30:16 10° E
STARLINK-1358 3.4 02:24:07 10° WSW 02:27:12 56° NNW 02:30:17 10° ENE
STARLINK-1244 3.9 02:23:06 10° WNW 02:27:16 74° NNE 02:31:24 10° ESE
STARLINK-1341 3.5 02:23:55 10° WSW 02:27:24 64° NNW 02:30:53 10° ENE
STARLINK-1332 3.4 02:24:26 10° WSW 02:27:30 56° NNW 02:30:36 10° ENE
STARLINK-1348 3.4 02:24:48 10° WSW 02:27:52 55° NNW 02:30:57 10° ENE
STARLINK-1330 3.4 02:25:07 10° WSW 02:28:11 55° NNW 02:31:17 10° ENE
STARLINK-1363 3.4 02:25:27 10° WSW 02:28:32 55° NNW 02:31:36 10° ENE
STARLINK-1337 3.4 02:25:47 10° WSW 02:28:52 55° NNW 02:31:57 10° ENE
STARLINK-1342 3.4 02:26:08 10° WSW 02:29:12 54° NNW 02:32:17 10° ENE
STARLINK-1374 3.5 02:25:59 10° WSW 02:29:27 63° NNW 02:32:57 10° ENE
STARLINK-1364 3.4 02:26:29 10° WSW 02:29:33 54° NNW 02:32:38 10° ENE
STARLINK-1245 4.2 02:26:01 10° WNW 02:29:48 35° SW 02:33:34 10° SSE
STARLINK-1376 3.4 02:26:50 10° WSW 02:29:54 54° NNW 02:32:59 10° NE
IRIDIUM 103 4.4 02:24:57 10° S 02:30:09 89° W 02:35:25 10° N
STARLINK-1360 3.4 02:27:06 10° WSW 02:30:10 54° NNW 02:33:15 10° NE
STARLINK-1361 3.4 02:27:33 10° WSW 02:30:36 53° NNW 02:33:41 10° NE
STARLINK-1367 3.5 02:27:48 10° WSW 02:30:53 54° NNW 02:34:00 10° ENE
STARLINK-1366 3.5 02:28:11 10° WSW 02:31:15 53° NNW 02:34:19 10° NE
STARLINK-1339 3.6 02:28:04 10° WSW 02:31:32 61° NNW 02:35:01 10° ENE
STARLINK-1138 3.8 02:28:05 10° WNW 02:32:15 78° NNE 02:36:24 10° ESE
SL-4 R/B 3.3 02:27:48 10° WNW 02:32:27 48° N 02:36:53 10° ENE
Cosmos 2297 Rocket 3.5 02:28:42 10° NW 02:32:39 20° W 02:36:35 10° SW
STARLINK-1377 3.6 02:30:10 10° WSW 02:33:39 59° NNW 02:37:07 10° ENE
STARLINK-1233 4.3 02:31:01 10° WNW 02:34:44 32° SW 02:38:26 10° SSE
STARLINK-1203 3.8 02:30:54 10° WNW 02:35:08 82° NNE 02:39:20 10° ESE
STARLINK-1353 3.6 02:32:04 10° WSW 02:35:30 58° NNW 02:38:57 10° ENE
Cosmos 2082 4.3 02:31:36 10° NW 02:36:42 35° WSW 02:41:44 10° S
